Time,TemperatureF,DewpointF,PressureIn,WindDirection,WindDirectionDegrees,WindSpeedMPH,WindSpeedGustMPH,Humidity,HourlyPrecipIn,Conditions,Clouds,dailyrainin,SoftwareType,DateUTC
2013-09-15 00:01:00,81.7,76.3,29.97,SE,137,0.0,2.0,84,0.00,,,0.00,meteohub,2013-09-15 04:01:00,
2013-09-15 00:02:00,81.5,76.3,29.97,ESE,114,0.0,2.0,84,0.00,,,0.00,meteohub,2013-09-15 04:02:00,
2013-09-15 00:07:00,81.5,75.9,29.97,SE,126,0.0,2.0,83,0.00,,,0.00,meteohub,2013-09-15 04:07:00,
2013-09-15 00:12:00,81.5,75.9,29.97,South,173,0.0,2.0,83,0.00,,,0.00,meteohub,2013-09-15 04:12:00,
2013-09-15 00:17:00,81.3,75.4,29.97,East,89,0.0,2.0,82,0.00,,,0.00,meteohub,2013-09-15 04:17:00,
2013-09-15 00:22:00,81.5,75.4,29.97,East,80,0.0,2.0,82,0.00,,,0.00,meteohub,2013-09-15 04:22:00,
2013-09-15 00:27:00,81.7,75.9,29.98,SSE,148,0.0,2.0,83,0.00,,,0.00,meteohub,2013-09-15 04:27:00,
2013-09-15 00:32:00,81.7,75.9,29.98,SSW,201,0.0,2.0,83,0.00,,,0.00,meteohub,2013-09-15 04:32:00,
2013-09-15 00:37:00,81.7,76.3,29.98,NE,56,0.0,2.0,84,0.00,,,0.00,meteohub,2013-09-15 04:37:00,
2013-09-15 00:42:00,81.7,76.3,29.97,East,89,0.0,1.0,84,0.00,,,0.00,meteohub,2013-09-15 04:42:00,
2013-09-15 00:47:00,81.7,76.3,29.97,NNE,24,0.0,1.0,84,0.00,,,0.00,meteohub,2013-09-15 04:47:00,
2013-09-15 00:53:00,81.9,76.5,29.97,SE,138,0.0,1.0,84,0.00,,,0.00,meteohub,2013-09-15 04:53:00,
2013-09-15 00:58:00,81.9,76.1,29.97,SSE,150,0.0,2.0,83,0.00,,,0.00,meteohub,2013-09-15 04:58:00,
2013-09-15 01:02:00,81.9,76.1,29.97,East,98,0.0,4.0,83,0.00,,,0.00,meteohub,2013-09-15 05:02:00,
2013-09-15 01:07:00,82.0,76.3,29.97,South,169,0.0,4.0,83,0.00,,,0.00,meteohub,2013-09-15 05:07:00,
2013-09-15 01:12:00,82.0,76.3,29.97,SE,143,0.0,4.0,83,0.00,,,0.00,meteohub,2013-09-15 05:12:00,
2013-09-15 01:18:00,82.0,76.3,29.97,East,96,0.0,4.0,83,0.00,,,0.00,meteohub,2013-09-15 05:18:00,
2013-09-15 01:23:00,82.0,75.9,29.98,SSE,151,0.0,3.0,82,0.00,,,0.00,meteohub,2013-09-15 05:23:00,
2013-09-15 01:28:00,82.0,76.3,29.98,South,175,4.0,4.0,83,0.00,,,0.00,meteohub,2013-09-15 05:28:00,
2013-09-15 01:33:00,82.2,76.5,29.97,SSE,159,1.0,5.0,83,0.00,,,0.00,meteohub,2013-09-15 05:33:00,
2013-09-15 01:38:00,82.2,76.5,29.97,SE,132,0.0,5.0,83,0.00,,,0.00,meteohub,2013-09-15 05:38:00,
2013-09-15 01:43:00,82.0,76.3,29.97,ESE,107,0.0,5.0,83,0.00,,,0.00,meteohub,2013-09-15 05:43:00,
2013-09-15 01:48:00,82.0,76.3,29.96,East,101,0.0,3.0,83,0.00,,,0.00,meteohub,2013-09-15 05:48:00,
2013-09-15 01:53:00,82.0,76.3,29.96,ESE,122,0.0,3.0,83,0.00,,,0.00,meteohub,2013-09-15 05:53:00,
2013-09-15 01:58:00,82.0,77.0,29.96,SE,139,1.0,3.0,85,0.00,,,0.00,meteohub,2013-09-15 05:58:00,
2013-09-15 02:03:00,82.0,77.0,29.96,SSE,147,2.0,3.0,85,0.00,,,0.00,meteohub,2013-09-15 06:03:00,
2013-09-15 02:08:00,81.9,76.5,29.96,NE,41,0.0,5.0,84,0.00,,,0.00,meteohub,2013-09-15 06:08:00,
2013-09-15 02:13:00,81.7,76.3,29.96,East,91,0.0,5.0,84,0.00,,,0.00,meteohub,2013-09-15 06:13:00,
2013-09-15 02:18:00,81.3,75.7,29.96,East,86,0.0,5.0,83,0.00,,,0.00,meteohub,2013-09-15 06:18:00,
2013-09-15 02:23:00,81.1,75.6,29.96,ENE,61,0.0,3.0,83,0.00,,,0.00,meteohub,2013-09-15 06:23:00,
2013-09-15 02:28:00,81.1,75.9,29.96,ENE,63,0.0,3.0,84,0.00,,,0.00,meteohub,2013-09-15 06:28:00,
2013-09-15 02:33:00,81.0,75.7,29.96,ESE,107,0.0,1.0,84,0.00,,,0.00,meteohub,2013-09-15 06:33:00,
2013-09-15 02:38:00,81.1,76.3,29.96,ENE,73,0.0,2.0,85,0.00,,,0.00,meteohub,2013-09-15 06:38:00,
2013-09-15 02:43:00,81.1,76.3,29.96,NE,54,0.0,4.0,85,0.00,,,0.00,meteohub,2013-09-15 06:43:00,
2013-09-15 02:48:00,81.1,76.3,29.96,SE,128,0.0,4.0,85,0.00,,,0.00,meteohub,2013-09-15 06:48:00,
2013-09-15 02:53:00,81.3,76.6,29.96,SE,140,0.0,4.0,86,0.00,,,0.00,meteohub,2013-09-15 06:53:00,
2013-09-15 02:58:00,81.5,76.8,29.96,East,86,0.0,4.0,86,0.00,,,0.00,meteohub,2013-09-15 06:58:00,
2013-09-15 03:03:00,81.3,75.4,29.96,ESE,121,8.0,8.0,82,0.00,,,0.00,meteohub,2013-09-15 07:03:00,
2013-09-15 03:08:00,80.4,70.9,29.96,South,170,5.0,16.0,73,0.00,,,0.00,meteohub,2013-09-15 07:08:00,
2013-09-15 03:13:00,79.9,70.0,29.94,East,91,0.0,16.0,72,0.00,,,0.00,meteohub,2013-09-15 07:13:00,
2013-09-15 03:18:00,79.5,70.5,29.94,SSE,148,3.0,16.0,74,0.00,,,0.00,meteohub,2013-09-15 07:18:00,
2013-09-15 03:23:00,79.3,72.0,29.94,SE,127,1.0,10.0,78,0.00,,,0.00,meteohub,2013-09-15 07:23:00,
2013-09-15 03:28:00,79.0,72.3,29.94,SSE,157,0.0,8.0,80,0.00,,,0.00,meteohub,2013-09-15 07:28:00,
2013-09-15 03:33:00,78.8,72.5,29.93,SE,126,0.0,8.0,81,0.00,,,0.00,meteohub,2013-09-15 07:33:00,
2013-09-15 03:38:00,78.6,72.3,29.94,South,175,3.0,5.0,81,0.00,,,0.00,meteohub,2013-09-15 07:38:00,
2013-09-15 03:43:00,78.6,72.0,29.93,ESE,117,0.0,11.0,80,0.00,,,0.00,meteohub,2013-09-15 07:43:00,
2013-09-15 03:48:00,78.6,72.0,29.93,ESE,122,0.0,11.0,80,0.00,,,0.00,meteohub,2013-09-15 07:48:00,
2013-09-15 03:53:00,78.6,72.3,29.93,SE,134,0.0,11.0,81,0.00,,,0.00,meteohub,2013-09-15 07:53:00,
2013-09-15 03:58:00,78.6,72.7,29.93,SE,126,0.0,6.0,82,0.00,,,0.00,meteohub,2013-09-15 07:58:00,
2013-09-15 04:03:00,78.6,72.7,29.93,SE,142,0.0,6.0,82,0.00,,,0.00,meteohub,2013-09-15 08:03:00,
2013-09-15 04:08:00,78.6,72.7,29.93,South,169,0.0,5.0,82,0.00,,,0.00,meteohub,2013-09-15 08:08:00,
2013-09-15 04:13:00,78.6,72.3,29.93,SSE,153,0.0,4.0,81,0.00,,,0.00,meteohub,2013-09-15 08:13:00,
2013-09-15 04:18:00,78.6,72.7,29.93,SE,139,0.0,2.0,82,0.00,,,0.00,meteohub,2013-09-15 08:18:00,
2013-09-15 04:23:00,78.6,72.7,29.94,ESE,119,0.0,2.0,82,0.00,,,0.00,meteohub,2013-09-15 08:23:00,
2013-09-15 04:28:00,78.6,73.0,29.94,SSE,158,0.0,3.0,83,0.00,,,0.00,meteohub,2013-09-15 08:28:00,
2013-09-15 04:33:00,78.6,73.0,29.94,SE,132,0.0,3.0,83,0.00,,,0.00,meteohub,2013-09-15 08:33:00,
2013-09-15 04:38:00,78.4,72.9,29.94,SE,133,0.0,3.0,83,0.00,,,0.00,meteohub,2013-09-15 08:38:00,
2013-09-15 04:43:00,78.4,72.9,29.94,SE,133,0.0,1.0,83,0.00,,,0.00,meteohub,2013-09-15 08:43:00,
2013-09-15 04:48:00,78.4,73.2,29.93,SE,133,0.0,0.0,84,0.00,,,0.00,meteohub,2013-09-15 08:48:00,
2013-09-15 04:53:00,78.4,73.6,29.93,SE,133,0.0,0.0,85,0.00,,,0.00,meteohub,2013-09-15 08:53:00,
2013-09-15 04:58:00,78.4,73.6,29.93,SE,144,0.0,0.0,85,0.00,,,0.00,meteohub,2013-09-15 08:58:00,
2013-09-15 05:03:00,78.4,73.6,29.93,SE,144,0.0,1.0,85,0.00,,,0.00,meteohub,2013-09-15 09:03:00,
2013-09-15 05:08:00,78.4,73.9,29.93,SSE,155,0.0,1.0,86,0.00,,,0.00,meteohub,2013-09-15 09:08:00,
2013-09-15 05:13:00,78.4,74.3,29.93,ESE,116,0.0,1.0,87,0.00,,,0.00,meteohub,2013-09-15 09:13:00,
2013-09-15 05:18:00,78.4,74.3,29.94,East,89,0.0,1.0,87,0.00,,,0.00,meteohub,2013-09-15 09:18:00,
2013-09-15 05:23:00,78.6,74.5,29.94,East,89,0.0,2.0,87,0.00,,,0.00,meteohub,2013-09-15 09:23:00,
2013-09-15 05:28:00,78.6,74.5,29.94,East,89,0.0,2.0,87,0.00,,,0.00,meteohub,2013-09-15 09:28:00,
2013-09-15 05:33:00,78.6,74.1,29.94,East,90,0.0,2.0,86,0.00,,,0.00,meteohub,2013-09-15 09:33:00,
2013-09-15 05:38:00,78.6,73.8,29.94,ESE,123,0.0,1.0,85,0.00,,,0.00,meteohub,2013-09-15 09:38:00,
2013-09-15 05:43:00,78.6,73.4,29.94,SE,140,0.0,2.0,84,0.00,,,0.00,meteohub,2013-09-15 09:43:00,
2013-09-15 05:48:00,79.0,73.8,29.94,East,95,0.0,2.0,84,0.00,,,0.00,meteohub,2013-09-15 09:48:00,
2013-09-15 05:53:00,79.2,74.3,29.95,NE,46,0.0,3.0,85,0.00,,,0.00,meteohub,2013-09-15 09:53:00,
2013-09-15 05:58:00,79.3,74.1,29.95,East,99,0.0,3.0,84,0.00,,,0.00,meteohub,2013-09-15 09:58:00,
2013-09-15 06:03:00,79.3,74.5,29.95,SSE,149,0.0,3.0,85,0.00,,,0.00,meteohub,2013-09-15 10:03:00,
2013-09-15 06:08:00,79.3,74.5,29.95,SSE,154,0.0,1.0,85,0.00,,,0.00,meteohub,2013-09-15 10:08:00,
2013-09-15 06:13:00,79.3,74.8,29.96,SSE,154,0.0,1.0,86,0.00,,,0.00,meteohub,2013-09-15 10:13:00,
2013-09-15 06:19:00,79.3,74.8,29.96,SSE,154,0.0,1.0,86,0.00,,,0.00,meteohub,2013-09-15 10:19:00,
2013-09-15 06:24:00,79.3,75.2,29.96,SSE,154,0.0,0.0,87,0.00,,,0.00,meteohub,2013-09-15 10:24:00,
2013-09-15 06:28:00,79.3,75.2,29.96,SSE,154,0.0,0.0,87,0.00,,,0.00,meteohub,2013-09-15 10:28:00,
2013-09-15 06:34:00,79.3,75.6,29.96,East,79,0.0,1.0,88,0.00,,,0.00,meteohub,2013-09-15 10:34:00,
2013-09-15 06:39:00,79.3,75.6,29.96,East,79,0.0,1.0,88,0.00,,,0.00,meteohub,2013-09-15 10:39:00,
2013-09-15 06:44:00,79.2,75.4,29.96,East,79,0.0,1.0,88,0.00,,,0.00,meteohub,2013-09-15 10:44:00,
2013-09-15 06:49:00,79.3,75.6,29.96,East,79,0.0,0.0,88,0.00,,,0.00,meteohub,2013-09-15 10:49:00,
2013-09-15 06:54:00,79.3,75.2,29.96,ESE,107,0.0,0.0,87,0.00,,,0.00,meteohub,2013-09-15 10:54:00,
2013-09-15 06:59:00,79.3,74.8,29.96,East,101,0.0,1.0,86,0.00,,,0.00,meteohub,2013-09-15 10:59:00,
2013-09-15 07:04:00,79.5,75.0,29.96,NE,35,0.0,3.0,86,0.00,,,0.00,meteohub,2013-09-15 11:04:00,
2013-09-15 07:09:00,79.7,75.2,29.97,South,180,0.0,3.0,86,0.00,,,0.00,meteohub,2013-09-15 11:09:00,
2013-09-15 07:14:00,79.9,75.4,29.97,ENE,62,0.0,3.0,86,0.00,,,0.00,meteohub,2013-09-15 11:14:00,
2013-09-15 07:19:00,79.9,75.4,29.98,East,88,0.0,3.0,86,0.00,,,0.00,meteohub,2013-09-15 11:19:00,
2013-09-15 07:24:00,80.1,75.6,29.97,SE,130,0.0,3.0,86,0.00,,,0.00,meteohub,2013-09-15 11:24:00,
2013-09-15 07:29:00,80.2,75.7,29.97,East,95,1.0,3.0,86,0.00,,,0.00,meteohub,2013-09-15 11:29:00,
2013-09-15 07:34:00,80.2,75.7,29.98,ENE,63,0.0,2.0,86,0.00,,,0.00,meteohub,2013-09-15 11:34:00,
2013-09-15 07:39:00,80.4,75.9,29.98,SE,144,0.0,4.0,86,0.00,,,0.00,meteohub,2013-09-15 11:39:00,
2013-09-15 07:44:00,80.6,76.1,29.98,SSE,152,1.0,4.0,86,0.00,,,0.00,meteohub,2013-09-15 11:44:00,
2013-09-15 07:49:00,80.8,76.3,29.98,SSE,150,0.0,4.0,86,0.00,,,0.00,meteohub,2013-09-15 11:49:00,
2013-09-15 07:54:00,80.8,76.3,29.98,ENE,63,0.0,1.0,86,0.00,,,0.00,meteohub,2013-09-15 11:54:00,
2013-09-15 07:59:00,81.0,76.5,29.99,NE,43,0.0,1.0,86,0.00,,,0.00,meteohub,2013-09-15 11:59:00,
2013-09-15 08:04:00,81.0,76.5,29.99,ENE,63,0.0,1.0,86,0.00,,,0.00,meteohub,2013-09-15 12:04:00,
2013-09-15 08:09:00,81.3,76.6,29.99,ENE,75,2.0,2.0,86,0.00,,,0.00,meteohub,2013-09-15 12:09:00,
2013-09-15 08:14:00,81.7,76.6,29.99,NE,43,0.0,3.0,85,0.00,,,0.00,meteohub,2013-09-15 12:14:00,
2013-09-15 08:19:00,81.9,76.8,29.99,ENE,68,0.0,3.0,85,0.00,,,0.00,meteohub,2013-09-15 12:19:00,
2013-09-15 08:24:00,81.9,76.8,29.99,East,92,0.0,3.0,85,0.00,,,0.00,meteohub,2013-09-15 12:24:00,
2013-09-15 08:29:00,81.9,76.5,29.99,East,96,0.0,3.0,84,0.00,,,0.00,meteohub,2013-09-15 12:29:00,
2013-09-15 08:34:00,82.0,77.0,29.99,NNE,28,2.0,5.0,85,0.00,,,0.00,meteohub,2013-09-15 12:34:00,
2013-09-15 08:39:00,82.6,77.2,29.99,ESE,107,2.0,5.0,84,0.00,,,0.00,meteohub,2013-09-15 12:39:00,
2013-09-15 08:44:00,83.3,77.9,29.99,East,100,1.0,6.0,84,0.00,,,0.00,meteohub,2013-09-15 12:44:00,
2013-09-15 08:49:00,83.8,78.1,30.00,ESE,117,1.0,6.0,83,0.00,,,0.00,meteohub,2013-09-15 12:49:00,
2013-09-15 08:54:00,84.4,77.9,30.00,ENE,65,1.0,6.0,81,0.00,,,0.00,meteohub,2013-09-15 12:54:00,
2013-09-15 08:59:00,84.9,78.4,30.00,East,100,2.0,5.0,81,0.00,,,0.00,meteohub,2013-09-15 12:59:00,
2013-09-15 09:04:00,85.5,78.6,30.00,East,88,1.0,4.0,80,0.00,,,0.00,meteohub,2013-09-15 13:04:00,
2013-09-15 09:09:00,85.8,78.1,30.00,NE,49,1.0,4.0,78,0.00,,,0.00,meteohub,2013-09-15 13:09:00,
2013-09-15 09:14:00,86.4,78.3,30.00,ESE,109,2.0,4.0,77,0.00,,,0.00,meteohub,2013-09-15 13:14:00,
2013-09-15 09:19:00,86.7,78.6,30.00,ENE,77,0.0,7.0,77,0.00,,,0.00,meteohub,2013-09-15 13:19:00,
2013-09-15 09:24:00,86.7,78.3,30.00,NE,53,0.0,7.0,76,0.00,,,0.00,meteohub,2013-09-15 13:24:00,
2013-09-15 09:29:00,86.9,78.4,30.01,East,91,0.0,7.0,76,0.00,,,0.00,meteohub,2013-09-15 13:29:00,
2013-09-15 09:34:00,87.1,78.6,30.01,East,90,0.0,5.0,76,0.00,,,0.00,meteohub,2013-09-15 13:34:00,
2013-09-15 09:39:00,87.1,78.6,30.01,NE,36,2.0,5.0,76,0.00,,,0.00,meteohub,2013-09-15 13:39:00,
2013-09-15 09:44:00,87.1,78.6,30.02,SE,144,2.0,6.0,76,0.00,,,0.00,meteohub,2013-09-15 13:44:00,
2013-09-15 09:49:00,86.7,78.6,30.02,ESE,123,3.0,7.0,77,0.00,,,0.00,meteohub,2013-09-15 13:49:00,
2013-09-15 09:54:00,86.2,78.4,30.02,East,86,1.0,7.0,78,0.00,,,0.00,meteohub,2013-09-15 13:54:00,
2013-09-15 09:59:00,85.5,78.3,30.02,East,86,1.0,7.0,79,0.00,,,0.00,meteohub,2013-09-15 13:59:00,
2013-09-15 10:04:00,85.3,78.8,30.02,East,84,1.0,7.0,81,0.00,,,0.00,meteohub,2013-09-15 14:04:00,
2013-09-15 10:09:00,85.3,78.8,30.02,South,175,2.0,7.0,81,0.00,,,0.00,meteohub,2013-09-15 14:09:00,
2013-09-15 10:14:00,85.3,78.8,30.03,NNE,27,2.0,5.0,81,0.00,,,0.00,meteohub,2013-09-15 14:14:00,
2013-09-15 10:20:00,85.6,78.8,30.04,ESE,111,1.0,5.0,80,0.00,,,0.00,meteohub,2013-09-15 14:20:00,
2013-09-15 10:25:00,85.6,78.8,30.04,East,83,1.0,7.0,80,0.00,,,0.00,meteohub,2013-09-15 14:25:00,
2013-09-15 10:30:00,85.5,79.0,30.04,East,97,0.0,10.0,81,0.00,,,0.00,meteohub,2013-09-15 14:30:00,
2013-09-15 10:35:00,85.5,79.0,30.04,ESE,121,2.0,10.0,81,0.00,,,0.00,meteohub,2013-09-15 14:35:00,
2013-09-15 10:40:00,85.8,79.3,30.03,East,88,1.0,10.0,81,0.00,,,0.00,meteohub,2013-09-15 14:40:00,
2013-09-15 10:45:00,86.4,78.6,30.04,ENE,65,4.0,10.0,78,0.00,,,0.00,meteohub,2013-09-15 14:45:00,
2013-09-15 10:50:00,84.6,75.4,30.04,North,5,1.0,11.0,74,0.00,,,0.00,meteohub,2013-09-15 14:50:00,
2013-09-15 10:55:00,83.1,74.3,30.03,NW,311,1.0,13.0,75,0.00,,,0.00,meteohub,2013-09-15 14:55:00,
2013-09-15 11:00:00,82.0,74.1,30.03,SE,124,3.0,13.0,77,0.00,,,0.00,meteohub,2013-09-15 15:00:00,
2013-09-15 11:05:00,81.3,73.8,30.04,SSE,150,6.0,13.0,78,0.00,,,0.00,meteohub,2013-09-15 15:05:00,
2013-09-15 11:10:00,81.1,73.6,30.03,ENE,57,0.0,10.0,78,0.00,,,0.00,meteohub,2013-09-15 15:10:00,
2013-09-15 11:15:00,81.0,73.8,30.03,NNE,28,1.0,10.0,79,0.00,,,0.00,meteohub,2013-09-15 15:15:00,
2013-09-15 11:20:00,80.8,74.5,30.04,SE,143,1.0,10.0,81,0.00,,,0.00,meteohub,2013-09-15 15:20:00,
2013-09-15 11:25:00,80.6,75.0,30.05,WNW,302,0.0,9.0,83,0.00,,,0.00,meteohub,2013-09-15 15:25:00,
2013-09-15 11:30:00,80.8,75.2,30.04,ENE,61,3.0,9.0,83,0.00,,,0.00,meteohub,2013-09-15 15:30:00,
2013-09-15 11:35:00,81.0,75.4,30.04,SSE,148,3.0,9.0,83,0.00,,,0.00,meteohub,2013-09-15 15:35:00,
2013-09-15 11:40:00,80.8,75.6,30.04,South,187,3.0,8.0,84,0.00,,,0.00,meteohub,2013-09-15 15:40:00,
2013-09-15 11:45:00,80.6,75.4,30.04,SSE,149,1.0,8.0,84,0.00,,,0.00,meteohub,2013-09-15 15:45:00,
2013-09-15 11:50:00,80.4,75.6,30.04,SE,126,0.0,8.0,85,0.00,,,0.00,meteohub,2013-09-15 15:50:00,
2013-09-15 11:55:00,80.4,75.2,30.04,SSE,148,0.0,6.0,84,0.00,,,0.00,meteohub,2013-09-15 15:55:00,
2013-09-15 12:00:00,80.6,74.7,30.04,ESE,116,1.0,6.0,82,0.00,,,0.00,meteohub,2013-09-15 16:00:00,
2013-09-15 12:05:00,81.0,74.7,30.04,SE,143,2.0,9.0,81,0.00,,,0.00,meteohub,2013-09-15 16:05:00,
2013-09-15 12:10:00,81.1,74.3,30.04,ESE,119,0.0,9.0,80,0.00,,,0.00,meteohub,2013-09-15 16:10:00,
2013-09-15 12:15:00,81.3,74.8,30.04,SSW,198,1.0,9.0,81,0.00,,,0.00,meteohub,2013-09-15 16:15:00,
2013-09-15 12:20:00,81.5,74.7,30.04,SSE,151,2.0,8.0,80,0.00,,,0.00,meteohub,2013-09-15 16:20:00,
2013-09-15 12:25:00,81.7,75.2,30.04,East,79,1.0,8.0,81,0.00,,,0.00,meteohub,2013-09-15 16:25:00,
2013-09-15 12:30:00,81.7,75.6,30.03,SE,128,6.0,8.0,82,0.00,,,0.00,meteohub,2013-09-15 16:30:00,
2013-09-15 12:35:00,81.7,76.3,30.03,SSE,157,3.0,8.0,84,0.00,,,0.00,meteohub,2013-09-15 16:35:00,
2013-09-15 12:40:00,81.7,77.0,30.04,ESE,117,0.0,8.0,86,0.00,,,0.00,meteohub,2013-09-15 16:40:00,
2013-09-15 12:45:00,81.7,77.0,30.04,SE,145,0.0,7.0,86,0.00,,,0.00,meteohub,2013-09-15 16:45:00,
2013-09-15 12:50:00,81.3,77.0,30.04,SE,130,2.0,5.0,87,0.00,,,0.00,meteohub,2013-09-15 16:50:00,
2013-09-15 12:55:00,81.1,76.8,30.04,East,91,2.0,5.0,87,0.00,,,0.00,meteohub,2013-09-15 16:55:00,
2013-09-15 13:00:00,81.0,76.6,30.04,ESE,119,0.0,7.0,87,0.00,,,0.00,meteohub,2013-09-15 17:00:00,
2013-09-15 13:05:00,81.0,76.6,30.04,ESE,105,0.0,7.0,87,0.00,,,0.00,meteohub,2013-09-15 17:05:00,
2013-09-15 13:10:00,81.0,76.6,30.04,ESE,122,0.0,7.0,87,0.00,,,0.00,meteohub,2013-09-15 17:10:00,
2013-09-15 13:15:00,81.1,76.8,30.03,ESE,115,0.0,5.0,87,0.00,,,0.00,meteohub,2013-09-15 17:15:00,
2013-09-15 13:20:00,81.1,76.8,30.03,SSE,150,0.0,5.0,87,0.00,,,0.00,meteohub,2013-09-15 17:20:00,
2013-09-15 13:25:00,81.1,76.8,30.03,SSE,158,1.0,5.0,87,0.00,,,0.00,meteohub,2013-09-15 17:25:00,
2013-09-15 13:30:00,81.1,76.8,30.02,SE,141,1.0,5.0,87,0.00,,,0.00,meteohub,2013-09-15 17:30:00,
2013-09-15 13:35:00,81.1,76.8,30.01,SE,144,2.0,6.0,87,0.00,,,0.00,meteohub,2013-09-15 17:35:00,
2013-09-15 13:40:00,81.1,76.8,30.01,ESE,121,2.0,7.0,87,0.00,,,0.00,meteohub,2013-09-15 17:40:00,
2013-09-15 13:45:00,81.1,77.2,30.01,SE,126,0.0,7.0,88,0.00,,,0.00,meteohub,2013-09-15 17:45:00,
2013-09-15 13:50:00,81.1,77.2,30.01,SE,146,3.0,7.0,88,0.00,,,0.00,meteohub,2013-09-15 17:50:00,
2013-09-15 13:55:00,81.1,77.2,30.01,SE,140,0.0,5.0,88,0.00,,,0.00,meteohub,2013-09-15 17:55:00,
2013-09-15 14:00:00,81.1,77.2,30.01,SE,146,1.0,6.0,88,0.00,,,0.00,meteohub,2013-09-15 18:00:00,
2013-09-15 14:05:00,81.1,77.2,30.01,SE,142,2.0,7.0,88,0.00,,,0.00,meteohub,2013-09-15 18:05:00,
2013-09-15 14:10:00,81.1,77.2,30.01,South,189,1.0,7.0,88,0.00,,,0.00,meteohub,2013-09-15 18:10:00,
2013-09-15 14:15:00,81.1,77.2,30.00,SSE,167,0.0,7.0,88,0.00,,,0.00,meteohub,2013-09-15 18:15:00,
2013-09-15 14:20:00,81.1,77.5,30.01,ESE,116,0.0,8.0,89,0.00,,,0.00,meteohub,2013-09-15 18:20:00,
2013-09-15 14:25:00,81.1,77.5,30.00,SSE,161,1.0,8.0,89,0.00,,,0.00,meteohub,2013-09-15 18:25:00,
2013-09-15 14:31:00,81.1,77.9,30.00,ESE,118,0.0,8.0,90,0.00,,,0.00,meteohub,2013-09-15 18:31:00,
2013-09-15 14:36:00,81.1,77.9,30.00,NNE,32,0.0,5.0,90,0.00,,,0.00,meteohub,2013-09-15 18:36:00,
2013-09-15 14:41:00,81.1,77.9,29.99,ESE,107,0.0,5.0,90,0.00,,,0.00,meteohub,2013-09-15 18:41:00,
2013-09-15 14:46:00,81.1,77.9,29.99,ENE,59,0.0,6.0,90,0.00,,,0.00,meteohub,2013-09-15 18:46:00,
2013-09-15 14:51:00,81.1,77.9,29.99,NE,44,0.0,6.0,90,0.00,,,0.00,meteohub,2013-09-15 18:51:00,
2013-09-15 14:56:00,81.1,78.3,30.00,East,99,0.0,6.0,91,0.00,,,0.00,meteohub,2013-09-15 18:56:00,
2013-09-15 15:01:00,81.1,78.3,30.00,East,99,0.0,1.0,91,0.00,,,0.00,meteohub,2013-09-15 19:01:00,
2013-09-15 15:06:00,81.3,78.4,30.00,East,99,0.0,0.0,91,0.00,,,0.00,meteohub,2013-09-15 19:06:00,
2013-09-15 15:11:00,81.3,78.4,30.01,East,99,0.0,0.0,91,0.00,,,0.00,meteohub,2013-09-15 19:11:00,
2013-09-15 15:16:00,81.5,78.3,30.01,SSW,205,0.0,3.0,90,0.00,,,0.00,meteohub,2013-09-15 19:16:00,
2013-09-15 15:18:00,81.5,78.3,30.01,SSW,205,0.0,3.0,90,0.00,,,0.00,meteohub,2013-09-15 19:18:00,
2013-09-15 15:23:00,81.5,78.3,30.01,ESE,105,0.0,3.0,90,0.00,,,0.00,meteohub,2013-09-15 19:23:00,
2013-09-15 15:28:00,81.7,78.4,30.01,SE,132,0.0,3.0,90,0.00,,,0.00,meteohub,2013-09-15 19:28:00,
2013-09-15 15:33:00,81.9,78.3,30.01,SSE,165,3.0,3.0,89,0.00,,,0.00,meteohub,2013-09-15 19:33:00,
2013-09-15 15:38:00,81.9,78.3,30.01,SE,135,0.0,3.0,89,0.00,,,0.00,meteohub,2013-09-15 19:38:00,
2013-09-15 15:43:00,82.0,78.4,30.00,South,175,1.0,3.0,89,0.00,,,0.00,meteohub,2013-09-15 19:43:00,
2013-09-15 15:48:00,82.2,78.3,30.00,SSE,161,0.0,3.0,88,0.00,,,0.00,meteohub,2013-09-15 19:48:00,
2013-09-15 15:53:00,82.2,77.5,29.99,ESE,108,1.0,3.0,86,0.00,,,0.00,meteohub,2013-09-15 19:53:00,
2013-09-15 15:58:00,82.2,77.2,29.99,SE,128,0.0,4.0,85,0.00,,,0.00,meteohub,2013-09-15 19:58:00,
2013-09-15 16:03:00,82.2,77.2,29.99,SE,132,0.0,4.0,85,0.00,,,0.00,meteohub,2013-09-15 20:03:00,
2013-09-15 16:08:00,82.2,77.2,29.99,SSE,154,1.0,7.0,85,0.00,,,0.00,meteohub,2013-09-15 20:08:00,
2013-09-15 16:13:00,82.2,76.8,29.98,SE,136,0.0,7.0,84,0.00,,,0.00,meteohub,2013-09-15 20:13:00,
2013-09-15 16:18:00,82.2,77.2,29.98,East,87,0.0,7.0,85,0.00,,,0.00,meteohub,2013-09-15 20:18:00,
2013-09-15 16:23:00,82.4,77.7,29.98,NE,46,0.0,5.0,86,0.00,,,0.00,meteohub,2013-09-15 20:23:00,
2013-09-15 16:28:00,82.6,77.9,29.97,North,5,0.0,5.0,86,0.00,,,0.00,meteohub,2013-09-15 20:28:00,
2013-09-15 16:33:00,82.8,77.7,29.97,ESE,122,0.0,5.0,85,0.00,,,0.00,meteohub,2013-09-15 20:33:00,
2013-09-15 16:38:00,82.9,77.9,29.97,ESE,122,0.0,3.0,85,0.00,,,0.00,meteohub,2013-09-15 20:38:00,
2013-09-15 16:43:00,82.9,77.5,29.97,ESE,105,1.0,3.0,84,0.00,,,0.00,meteohub,2013-09-15 20:43:00,
2013-09-15 16:48:00,83.1,78.1,29.98,SSE,157,1.0,5.0,85,0.00,,,0.00,meteohub,2013-09-15 20:48:00,
2013-09-15 16:53:00,83.1,78.1,29.98,South,171,0.0,5.0,85,0.00,,,0.00,meteohub,2013-09-15 20:53:00,
2013-09-15 16:58:00,83.5,78.4,29.98,SE,126,2.0,5.0,85,0.00,,,0.00,meteohub,2013-09-15 20:58:00,
2013-09-15 17:03:00,83.5,78.4,29.98,NNE,23,0.0,5.0,85,0.00,,,0.00,meteohub,2013-09-15 21:03:00,
2013-09-15 17:08:00,83.7,78.3,29.98,SE,128,1.0,5.0,84,0.00,,,0.00,meteohub,2013-09-15 21:08:00,
2013-09-15 17:13:00,83.7,78.3,29.99,NE,55,0.0,4.0,84,0.00,,,0.00,meteohub,2013-09-15 21:13:00,
2013-09-15 17:18:00,83.7,77.9,29.99,SE,134,0.0,6.0,83,0.00,,,0.00,meteohub,2013-09-15 21:18:00,
2013-09-15 17:23:00,83.7,78.3,29.99,SE,135,0.0,6.0,84,0.00,,,0.00,meteohub,2013-09-15 21:23:00,
2013-09-15 17:28:00,83.8,78.4,29.99,SE,142,2.0,6.0,84,0.00,,,0.00,meteohub,2013-09-15 21:28:00,
2013-09-15 17:33:00,83.8,78.1,29.99,South,188,3.0,5.0,83,0.00,,,0.00,meteohub,2013-09-15 21:33:00,
2013-09-15 17:38:00,84.0,78.3,29.99,South,190,2.0,5.0,83,0.00,,,0.00,meteohub,2013-09-15 21:38:00,
2013-09-15 17:43:00,84.0,78.3,29.99,SE,126,2.0,5.0,83,0.00,,,0.00,meteohub,2013-09-15 21:43:00,
2013-09-15 17:48:00,84.0,77.9,29.99,SE,130,0.0,6.0,82,0.00,,,0.00,meteohub,2013-09-15 21:48:00,
2013-09-15 17:53:00,84.0,78.3,30.00,SSE,163,0.0,8.0,83,0.00,,,0.00,meteohub,2013-09-15 21:53:00,
2013-09-15 17:58:00,84.0,78.6,30.00,SE,134,0.0,8.0,84,0.00,,,0.00,meteohub,2013-09-15 21:58:00,
2013-09-15 18:03:00,83.8,78.4,29.99,ESE,119,0.0,8.0,84,0.00,,,0.00,meteohub,2013-09-15 22:03:00,
2013-09-15 18:08:00,83.7,78.3,30.00,East,79,3.0,7.0,84,0.00,,,0.00,meteohub,2013-09-15 22:08:00,
2013-09-15 18:13:00,83.7,78.6,30.01,East,80,0.0,7.0,85,0.00,,,0.00,meteohub,2013-09-15 22:13:00,
2013-09-15 18:18:00,83.5,78.8,30.02,ENE,62,0.0,7.0,86,0.00,,,0.00,meteohub,2013-09-15 22:18:00,
2013-09-15 18:23:00,83.5,78.8,30.02,East,97,0.0,6.0,86,0.00,,,0.00,meteohub,2013-09-15 22:23:00,
2013-09-15 18:28:00,83.1,78.1,30.02,SSE,165,0.0,2.0,85,0.00,,,0.00,meteohub,2013-09-15 22:28:00,
2013-09-15 18:34:00,82.9,77.9,30.02,East,85,0.0,4.0,85,0.00,,,0.00,meteohub,2013-09-15 22:34:00,
2013-09-15 18:39:00,82.9,77.9,30.02,SSE,158,0.0,4.0,85,0.00,,,0.00,meteohub,2013-09-15 22:39:00,
2013-09-15 18:44:00,82.9,77.9,30.02,ENE,70,0.0,4.0,85,0.00,,,0.00,meteohub,2013-09-15 22:44:00,
2013-09-15 18:49:00,82.9,77.9,30.03,ESE,122,0.0,1.0,85,0.00,,,0.00,meteohub,2013-09-15 22:49:00,
2013-09-15 18:54:00,82.8,77.4,30.03,NE,50,0.0,2.0,84,0.00,,,0.00,meteohub,2013-09-15 22:54:00,
2013-09-15 18:59:00,82.8,77.4,30.04,NE,46,0.0,3.0,84,0.00,,,0.00,meteohub,2013-09-15 22:59:00,
2013-09-15 19:04:00,82.6,77.2,30.04,NNE,28,0.0,3.0,84,0.00,,,0.00,meteohub,2013-09-15 23:04:00,
2013-09-15 19:09:00,82.6,77.2,30.04,NE,51,0.0,3.0,84,0.00,,,0.00,meteohub,2013-09-15 23:09:00,
2013-09-15 19:14:00,82.6,77.5,30.04,ENE,75,0.0,3.0,85,0.00,,,0.00,meteohub,2013-09-15 23:14:00,
2013-09-15 19:19:00,82.4,77.7,30.04,NNE,16,1.0,3.0,86,0.00,,,0.00,meteohub,2013-09-15 23:19:00,
2013-09-15 19:24:00,81.7,74.5,30.04,ENE,74,1.0,7.0,79,0.00,,,0.00,meteohub,2013-09-15 23:24:00,
2013-09-15 19:29:00,81.0,74.7,30.04,NE,54,0.0,7.0,81,0.00,,,0.00,meteohub,2013-09-15 23:29:00,
2013-09-15 19:34:00,80.8,75.2,30.03,NNE,27,1.0,7.0,83,0.00,,,0.00,meteohub,2013-09-15 23:34:00,
2013-09-15 19:39:00,80.4,74.8,30.03,North,5,1.0,5.0,83,0.00,,,0.00,meteohub,2013-09-15 23:39:00,
2013-09-15 19:44:00,80.1,74.5,30.02,NNW,348,0.0,3.0,83,0.00,,,0.00,meteohub,2013-09-15 23:44:00,
2013-09-15 19:49:00,79.3,73.0,30.03,NNE,28,0.0,5.0,81,0.00,,,0.00,meteohub,2013-09-15 23:49:00,
2013-09-15 19:54:00,79.0,73.0,30.04,NNE,15,0.0,5.0,82,0.00,,,0.00,meteohub,2013-09-15 23:54:00,
2013-09-15 19:59:00,78.4,72.9,30.04,NNE,15,0.0,5.0,83,0.00,,,0.00,meteohub,2013-09-15 23:59:00,
2013-09-15 20:04:00,78.1,72.5,30.05,NNE,15,0.0,1.0,83,0.00,,,0.00,meteohub,2013-09-16 00:04:00,
2013-09-15 20:09:00,77.9,72.7,30.05,NNE,15,0.0,1.0,84,0.00,,,0.00,meteohub,2013-09-16 00:09:00,
2013-09-15 20:14:00,77.5,72.7,30.05,NNE,15,0.0,0.0,85,0.00,,,0.00,meteohub,2013-09-16 00:14:00,
2013-09-15 20:19:00,77.5,73.0,30.05,NNE,15,0.0,0.0,86,0.00,,,0.00,meteohub,2013-09-16 00:19:00,
2013-09-15 20:24:00,77.4,73.2,30.06,NNE,15,0.0,0.0,87,0.00,,,0.00,meteohub,2013-09-16 00:24:00,
2013-09-15 20:29:00,77.4,73.2,30.06,North,9,0.0,0.0,87,0.00,,,0.00,meteohub,2013-09-16 00:29:00,
2013-09-15 20:34:00,77.5,73.4,30.06,North,5,0.0,1.0,87,0.00,,,0.00,meteohub,2013-09-16 00:34:00,
2013-09-15 20:39:00,77.5,73.0,30.05,North,9,0.0,2.0,86,0.00,,,0.00,meteohub,2013-09-16 00:39:00,
2013-09-15 20:44:00,77.5,73.0,30.05,North,351,0.0,5.0,86,0.00,,,0.00,meteohub,2013-09-16 00:44:00,
2013-09-15 20:49:00,77.5,73.4,30.05,North,355,0.0,5.0,87,0.00,,,0.00,meteohub,2013-09-16 00:49:00,
2013-09-15 20:54:00,77.5,73.4,30.05,NNW,345,3.0,5.0,87,0.00,,,0.00,meteohub,2013-09-16 00:54:00,
2013-09-15 20:59:00,77.4,73.6,30.05,NNW,346,0.0,3.0,88,0.00,,,0.00,meteohub,2013-09-16 00:59:00,
2013-09-15 21:04:00,77.4,73.6,30.05,NNW,346,0.0,3.0,88,0.00,,,0.00,meteohub,2013-09-16 01:04:00,
2013-09-15 21:09:00,77.4,73.9,30.04,NE,39,0.0,3.0,89,0.00,,,0.00,meteohub,2013-09-16 01:09:00,
2013-09-15 21:14:00,77.2,73.8,30.05,NE,39,0.0,3.0,89,0.00,,,0.00,meteohub,2013-09-16 01:14:00,
2013-09-15 21:19:00,77.2,73.8,30.04,North,5,0.0,2.0,89,0.00,,,0.00,meteohub,2013-09-16 01:19:00,
2013-09-15 21:24:00,77.2,73.9,30.04,North,5,0.0,2.0,90,0.00,,,0.00,meteohub,2013-09-16 01:24:00,
2013-09-15 21:29:00,77.2,73.9,30.04,North,0,0.0,2.0,90,0.00,,,0.00,meteohub,2013-09-16 01:29:00,
2013-09-15 21:34:00,77.4,74.1,30.04,North,10,0.0,2.0,90,0.00,,,0.00,meteohub,2013-09-16 01:34:00,
2013-09-15 21:39:00,77.5,74.7,30.04,North,11,0.0,1.0,91,0.00,,,0.00,meteohub,2013-09-16 01:39:00,
2013-09-15 21:44:00,77.5,74.7,30.04,North,355,0.0,3.0,91,0.00,,,0.00,meteohub,2013-09-16 01:44:00,
2013-09-15 21:50:00,77.5,74.7,30.04,North,355,0.0,3.0,91,0.00,,,0.00,meteohub,2013-09-16 01:50:00,
2013-09-15 21:55:00,77.7,75.2,30.04,NE,42,0.0,3.0,92,0.00,,,0.00,meteohub,2013-09-16 01:55:00,
2013-09-15 22:00:00,78.1,75.9,30.04,NE,45,0.0,3.0,93,0.00,,,0.00,meteohub,2013-09-16 02:00:00,
2013-09-15 22:05:00,78.4,76.3,30.03,NE,37,0.0,3.0,93,0.00,,,0.00,meteohub,2013-09-16 02:05:00,
2013-09-15 22:10:00,78.6,76.1,30.03,NE,38,1.0,5.0,92,0.00,,,0.00,meteohub,2013-09-16 02:10:00,
2013-09-15 22:15:00,79.0,76.5,30.03,NE,51,0.0,5.0,92,0.00,,,0.00,meteohub,2013-09-16 02:15:00,
2013-09-15 22:20:00,79.2,76.3,30.03,ENE,74,0.0,5.0,91,0.00,,,0.00,meteohub,2013-09-16 02:20:00,
2013-09-15 22:25:00,79.5,76.6,30.03,NE,45,0.0,3.0,91,0.00,,,0.00,meteohub,2013-09-16 02:25:00,
2013-09-15 22:30:00,79.7,76.1,30.02,ESE,109,0.0,4.0,89,0.00,,,0.00,meteohub,2013-09-16 02:30:00,
2013-09-15 22:35:00,79.9,75.4,30.03,ESE,122,0.0,7.0,86,0.00,,,0.00,meteohub,2013-09-16 02:35:00,
2013-09-15 22:40:00,80.1,75.2,30.03,SE,136,3.0,7.0,85,0.00,,,0.00,meteohub,2013-09-16 02:40:00,
2013-09-15 22:45:00,80.2,75.0,30.03,ENE,72,0.0,7.0,84,0.00,,,0.00,meteohub,2013-09-16 02:45:00,
2013-09-15 22:50:00,80.4,74.8,30.03,East,82,0.0,6.0,83,0.00,,,0.00,meteohub,2013-09-16 02:50:00,
2013-09-15 22:55:00,80.6,75.0,30.03,ESE,111,0.0,5.0,83,0.00,,,0.00,meteohub,2013-09-16 02:55:00,
2013-09-15 23:00:00,80.8,75.2,30.03,ENE,75,0.0,7.0,83,0.00,,,0.00,meteohub,2013-09-16 03:00:00,
2013-09-15 23:05:00,80.8,75.6,30.03,ESE,123,0.0,7.0,84,0.00,,,0.00,meteohub,2013-09-16 03:05:00,
2013-09-15 23:10:00,80.8,75.6,30.03,North,355,0.0,7.0,84,0.00,,,0.00,meteohub,2013-09-16 03:10:00,
2013-09-15 23:15:00,80.8,75.6,30.03,NNE,26,0.0,5.0,84,0.00,,,0.00,meteohub,2013-09-16 03:15:00,
2013-09-15 23:20:00,80.8,75.6,30.03,East,88,0.0,4.0,84,0.00,,,0.00,meteohub,2013-09-16 03:20:00,
2013-09-15 23:25:00,80.8,75.6,30.02,NNE,26,2.0,5.0,84,0.00,,,0.00,meteohub,2013-09-16 03:25:00,
2013-09-15 23:30:00,80.8,75.6,30.02,South,171,0.0,7.0,84,0.00,,,0.00,meteohub,2013-09-16 03:30:00,
2013-09-15 23:35:00,81.0,75.7,30.03,NE,39,0.0,7.0,84,0.00,,,0.00,meteohub,2013-09-16 03:35:00,
2013-09-15 23:40:00,81.0,75.7,30.02,SE,133,0.0,7.0,84,0.00,,,0.00,meteohub,2013-09-16 03:40:00,
2013-09-15 23:45:00,80.8,75.9,30.02,ESE,113,0.0,4.0,85,0.00,,,0.00,meteohub,2013-09-16 03:45:00,
2013-09-15 23:50:00,80.8,75.9,30.02,ESE,110,1.0,5.0,85,0.00,,,0.00,meteohub,2013-09-16 03:50:00,
2013-09-15 23:55:00,80.8,75.9,30.02,ENE,78,0.0,5.0,85,0.00,,,0.00,meteohub,2013-09-16 03:55:00,